MYRIOTA 7 (TYVAK-0152) (47968 NORAD) Tracking and Keplerian Element Data

This shows tracking and keplerian element data for the satellite.

Feedback or suggestion? Click here.




ElementValue
Catalog47968
NameMYRIOTA 7 (TYVAK-0152)
Epoch Orbit1320
Epoch Day169.58026478
Epoch Year2021
RAAN0.6667
Inclination45.008
Eccentricity0.0008668
Argument of Perigee42.6734
Mean Anonmoly358.2309
Mean Motion15.05166324
Decay Rate3.71E-06
L11 47968U 21023D 21169.58026478 .00000371 00000-0 42129-4 0 9994
L22 47968 45.0080 0.6667 0008668 42.6734 358.2309 15.05166324 13201

Live tracking and technical data element details for MYRIOTA 7 (TYVAK-0152) (NORAD 47968). MYRIOTA 7 (TYVAK-0152) can be tracked NOW for your location showing map with azimuth and elevation plus other details from your city location.

Track the satellite on the map from your city or location and see movement details for azimuth, elevation, latitude, longitude, range, height, and movement on the map or in text.







IsCatalogInMostPopularTable: catalog: 47968, numindb: 46
Update: records affected: 1



GetName: 47968 MYRIOTA 7 (TYVAK-0152)

Hit Count: updated at: Mon, 21 Jun 2021 03:31:47 GMT